Location: Ottawa
(45.4167°N, 75.7000°W)
Time: 07:31:40
(UTC-04:00)

Tiangong 1 - Pass Details

Date: 09 October 2017
Orbit: 292 x 319 km, 42.8° (Epoch: 24 October)

Event Time Altitude Azimuth Distance (km) Brightness Sun altitude
Rises 19:09:05 0° 251° (WSW) 2,042 6.4 -8.1°
Reaches altitude 10° 19:11:08 10° 243° (WSW) 1,207 4.7 -8.4°
Maximum altitude 19:13:42 40° 171° (S) 474 1.4 -8.9°
Enters shadow 19:15:44 14° 104° (ESE) 995 2.5 -9.2°
